Flag for Switzerland Weather past 2 weeks in Monthey, Valais, Switzerland

Now
61 °F

Passing clouds.


Feels Like: 61 °F
Forecast: 48 / 78 °F
Wind: 6 mph from North

Location: Aigle

Current Time: May 28, 2015 at 12:16:52 PM

Latest Report: May 28, 2015 at 11:00 AM


Visibility: N/A

Pressure: 30.11 "Hg

Humidity: 67%

Dew point: 50 °F

Location of MontheyLocation

Historic Weather in Monthey — Graph

°F

Monthey temperature yesterday

Maximum temperature yesterday: 66 °F (at 5:00 PM)
Minimum temperature yesterday: 46 °F (at 6:00 AM)
Average temperature yesterday: 57 °F

Past Weeks' High & Low Weather Summary

 TemperatureHumidityPressure
High80 °F (May 13, 6:00 PM)98% (May 26, 2:00 AM)30.30 "Hg (May 26, 2:00 AM)
Low42 °F (May 24, 6:00 AM)35% (May 23, 8:00 PM)29.73 "Hg (May 18, 7:00 PM)
Average57 °F69%30.04 "Hg
* Reported May 13 10:00 AM — May 28 10:00 AM, Monthey, Weather by CustomWeather, © 2015

Note: Actual official high and low records may vary slightly from our data, if they occured in-between our weather recording intervals... More about our weather records

Advertising

Monthey weather history for previous 24 hours

 ConditionsComfort  
Time TempWeatherWind HumidityBarometerVisibility
10:00 AM
Thu, May 28
57 °FCool.9 mph67%30.13 "HgN/A
9:00 AM55 °FCool.3 mph71%30.13 "HgN/A
8:00 AM50 °FPassing clouds.No wind83%30.14 "Hg22 mi
7:00 AM46 °FCool.2 mph88%30.16 "HgN/A
6:00 AM44 °FQuite cool.1 mph91%30.16 "HgN/A
5:00 AM45 °FPassing clouds.5 mph90%30.15 "Hg9 mi
4:00 AM44 °FQuite cool.1 mph93%30.16 "HgN/A
3:00 AM44 °FQuite cool.2 mph93%30.16 "HgN/A
2:00 AM47 °FCool.2 mph87%30.15 "HgN/A
1:00 AM47 °FCool.2 mph88%30.16 "HgN/A
12:00 AM50 °FCool.2 mph81%30.15 "HgN/A
10:00 PM
Wed, May 27
55 °FCool.2 mph66%30.13 "HgN/A
9:00 PM59 °FRefreshingly cool.5 mph51%30.11 "HgN/A
8:00 PM61 °FPassing clouds.8 mph45%30.09 "Hg16 mi
7:00 PM64 °FMild.15 mph44%30.09 "HgN/A
6:00 PM65 °FMild.13 mph43%30.08 "HgN/A
5:00 PM66 °FPassing clouds.10 mph43%30.09 "Hg16 mi
4:00 PM65 °FMild.13 mph47%30.11 "HgN/A
3:00 PM64 °FMild.15 mph47%30.11 "HgN/A
2:00 PM64 °FScattered clouds.10 mph47%30.13 "Hg16 mi
1:00 PM62 °FRefreshingly cool.16 mph50%30.13 "HgN/A
12:00 PM61 °FRefreshingly cool.12 mph52%30.14 "HgN/A
Weather by CustomWeather, © 2015

See weather overviewHow to use our weather pages